FW5278 Weather Reports


time (UTC)temp
F
wind
direction
speed
knots
gust
knots
rain 1hr
in
rain 24hr
in
rain mn
in
humidity
%
barometer
mb
20260503203554 87 281 1.7 5.2 0.00 0.00 0.00 38 1009.7
20260503203101 87 155 0.9 7.8 0.00 0.00 0.00 39 1009.8
20260503202552 86 260 0.9 7.8 0.00 0.00 0.00 39 1009.8
20260503202052 86 255 1.7 7.8 0.00 0.00 0.00 40 1009.9
20260503201558 86 175 0.9 4.3 0.00 0.00 0.00 41 1009.9
20260503201053 85 302 0.9 4.3 0.00 0.00 0.00 42 1010.1
20260503200552 85 289 0.9 5.2 0.00 0.00 0.00 43 1010.0
20260503200100 84 110 0.9 5.2 0.00 0.00 0.00 42 1010.1
20260503195551 84 300 1.7 5.2 0.00 0.00 0.00 42 1010.2
20260503195051 84 289 0.9 4.3 0.00 0.00 0.00 43 1010.3
20260503194555 83 170 0.9 4.3 0.00 0.00 0.00 45 1010.3
20260503194051 83 352 1.7 4.3 0.00 0.00 0.00 45 1010.4
20260503193550 83 302 1.7 4.3 0.00 0.00 0.00 45 1010.5
20260503193056 82 285 0.9 3.5 0.00 0.00 0.00 46 1010.7
20260503192552 82 85 0.9 3.5 0.00 0.00 0.00 45 1010.7
20260503192051 82 90 1.7 3.5 0.00 0.00 0.00 45 1010.8
20260503191620 81 210 0.0 2.6 0.00 0.00 0.00 48 1010.8
20260503191052 81 143 0.9 3.5 0.00 0.00 0.00 48 1010.8
20260503190550 80 257 0.9 3.5 0.00 0.00 0.00 49 1011.0
20260503190054 80 257 0.9 3.5 0.00 0.00 0.00 49 1011.0
20260503185556 79 95 0.9 3.5 0.00 0.00 0.00 49 1011.1
20260503185052 78 314 0.9 3.5 0.00 0.00 0.00 51 1011.1
20260503184559 78 97 0.9 4.3 0.00 0.00 0.00 51 1011.2
20260503184054 78 92 1.7 4.3 0.00 0.00 0.00 51 1011.3
20260503183552 78 287 0.9 2.6 0.00 0.00 0.00 52 1011.3
20260503183112 77 0 0.9 5.2 0.00 0.00 0.00 53 1011.5
20260503182549 77 200 0.9 5.2 0.00 0.00 0.00 53 1011.5
20260503182053 77 314 0.9 2.6 0.00 0.00 0.00 54 1011.5
20260503181555 76 243 0.9 3.5 0.00 0.00 0.00 55 1011.6
20260503181052 75 334 0.9 3.5 0.00 0.00 0.00 57 1011.6
20260503180555 74 106 0.9 5.2 0.00 0.00 0.00 57 1011.8
20260503180055 74 298 0.9 5.2 0.00 0.00 0.00 58 1011.7
20260503175551 73 318 1.7 3.5 0.00 0.00 0.00 59 1011.8
20260503175052 73 281 0.9 4.3 0.00 0.00 0.00 59 1011.8
20260503174553 73 92 0.9 4.3 0.00 0.00 0.00 58 1011.9
20260503174052 72 309 0.9 3.5 0.00 0.00 0.00 61 1011.9
20260503173552 72 93 0.9 3.5 0.00 0.00 0.00 61 1012.0
20260503173118 71 288 0.9 4.3 0.00 0.00 0.00 63 1012.0
20260503172552 71 164 0.0 4.3 0.00 0.00 0.00 65 1012.1
20260503172052 70 123 1.7 4.3 0.00 0.00 0.00 65 1012.1
20260503171554 70 310 0.9 3.5 0.00 0.00 0.00 65 1012.1
20260503171049 69 304 0.9 4.3 0.00 0.00 0.00 67 1012.1
20260503170553 69 115 0.9 4.3 0.00 0.00 0.00 66 1012.1
20260503150552 60 287 0.0 0.0 0.00 0.00 0.00 96 1012.5
20260503131051 51 0 0.0 0.0 0.00 0.00 0.00 94 1012.2
20260503130548 51 0 0.0 0.0 0.00 0.00 0.00 94 1012.2
20260503120114 53 0 0.0 0.0 0.00 0.00 0.00 94 1012.3
20260503110553 54 0 0.0 0.9 0.00 0.00 0.00 94 1012.4
20260503100104 54 0 0.0 0.0 0.00 0.00 0.00 92 1012.4
20260503081556 55 0 0.0 0.0 0.00 0.00 0.00 89 1012.8
20260503081053 56 0 0.0 0.0 0.00 0.00 0.00 89 1012.7
20260503080554 56 0 0.0 0.0 0.00 0.00 0.00 89 1012.8
20260503072555 57 0 0.0 0.0 0.00 0.00 0.00 87 1012.9
20260503072053 57 0 0.0 0.0 0.00 0.00 0.00 87 1012.9
20260503071607 57 0 0.0 0.0 0.00 0.00 0.00 87 1012.9
20260503071053 57 0 0.0 0.0 0.00 0.00 0.00 87 1012.9
20260503070555 58 0 0.0 0.0 0.00 0.00 0.00 86 1012.9
20260503070106 58 0 0.0 0.0 0.00 0.00 0.00 86 1012.9
20260503055053 61 0 0.0 0.0 0.00 0.00 0.00 81 1012.8
20260503054553 61 0 0.0 0.0 0.00 0.00 0.00 80 1012.6
20260503054053 61 0 0.0 0.9 0.00 0.00 0.00 80 1012.5
20260503053553 62 0 0.0 0.9 0.00 0.00 0.00 80 1012.5
20260503053055 62 0 0.0 0.0 0.00 0.00 0.00 78 1012.7
20260503052554 62 0 0.0 0.9 0.00 0.00 0.00 78 1012.6
20260503052053 63 0 0.0 0.9 0.00 0.00 0.00 78 1012.7
20260503051554 63 0 0.0 0.9 0.00 0.00 0.00 78 1012.4
20260503051050 63 0 0.0 1.7 0.00 0.00 0.00 78 1012.7
20260503050556 63 314 0.0 1.7 0.00 0.00 0.00 78 1012.8
20260503050059 63 308 0.0 1.7 0.00 0.00 0.00 78 1012.8
20260503045557 63 0 0.0 0.9 0.00 0.00 0.00 78 1013.1
20260503045051 63 0 0.0 0.9 0.00 0.00 0.00 78 1013.0
20260503044555 63 0 0.0 0.9 0.00 0.00 0.00 78 1013.1
20260503044055 63 0 0.0 0.9 0.00 0.00 0.00 78 1013.1
20260503043553 63 0 0.0 0.9 0.00 0.00 0.00 78 1013.0
20260503043057 63 0 0.0 0.0 0.00 0.00 0.00 77 1012.9
20260503042553 63 0 0.0 0.9 0.00 0.00 0.00 77 1012.9
20260503042053 63 0 0.0 0.9 0.00 0.00 0.00 77 1012.9
20260503041610 64 0 0.0 0.9 0.00 0.00 0.00 76 1012.9
20260503041054 64 0 0.0 0.9 0.00 0.00 0.00 76 1012.8
20260503040553 64 0 0.0 0.9 0.00 0.00 0.00 76 1012.8
20260503040101 64 0 0.0 0.0 0.00 0.00 0.00 75 1012.8
20260503035554 64 0 0.0 0.0 0.00 0.00 0.00 75 1012.8
20260503035057 64 0 0.0 0.9 0.00 0.00 0.00 74 1012.7
20260503034608 65 0 0.0 0.9 0.00 0.00 0.00 74 1012.7
20260503034054 65 131 0.0 0.9 0.00 0.00 0.00 74 1012.7
20260503033553 65 0 0.0 0.9 0.00 0.00 0.00 73 1012.7
20260503033100 65 126 0.0 0.9 0.00 0.00 0.00 73 1012.5
20260503032554 65 0 0.0 0.9 0.00 0.00 0.00 73 1012.5
20260503032053 65 0 0.0 0.9 0.00 0.00 0.00 72 1012.5
20260503031555 66 145 0.0 0.0 0.00 0.00 0.00 72 1012.3
20260503031054 66 0 0.0 0.9 0.00 0.00 0.00 71 1012.3
20260503030555 66 0 0.0 0.9 0.00 0.00 0.00 71 1012.4
20260503030057 66 0 0.0 2.6 0.00 0.00 0.00 71 1012.3
20260503025553 67 146 0.0 4.3 0.00 0.00 0.00 70 1012.5
20260503025053 67 287 0.0 4.3 0.00 0.00 0.00 70 1012.5
20260503024554 67 3 0.0 4.3 0.00 0.00 0.00 69 1012.4
20260503024053 67 287 0.0 6.1 0.00 0.00 0.00 69 1012.5
20260503023552 68 0 1.7 6.1 0.00 0.00 0.00 68 1012.4
20260503023054 68 288 0.9 5.2 0.00 0.00 0.00 67 1012.5
20260503022552 69 136 0.9 4.3 0.00 0.00 0.00 66 1012.5
20260503022052 70 0 0.9 5.2 0.00 0.00 0.00 66 1012.5
20260503021553 70 309 1.7 5.2 0.00 0.00 0.00 64 1012.4
20260503021055 71 340 0.9 3.5 0.00 0.00 0.00 64 1012.4
20260503020554 71 52 0.9 2.6 0.00 0.00 0.00 63 1012.3
20260503020056 72 293 0.0 1.7 0.00 0.00 0.00 62 1012.0
20260503015554 72 0 0.0 2.6 0.00 0.00 0.00 62 1011.7
20260503015054 73 197 0.9 2.6 0.00 0.00 0.00 61 1011.7
20260503014615 74 276 0.0 2.6 0.00 0.00 0.00 59 1011.4
20260503014053 74 236 0.9 0.9 0.00 0.00 0.00 58 1011.4
20260503013553 74 195 0.0 0.9 0.00 0.00 0.00 58 1011.4
20260503013055 74 0 0.0 0.9 0.00 0.00 0.00 57 1011.4
20260503012553 74 205 0.0 1.7 0.00 0.00 0.00 57 1011.4
20260503012050 74 0 0.0 1.7 0.00 0.00 0.00 57 1011.4
20260503011556 75 186 0.0 1.7 0.00 0.00 0.00 56 1011.3
20260503011053 75 18 0.9 2.6 0.00 0.00 0.00 56 1011.2
20260503010553 75 204 0.9 2.6 0.00 0.00 0.00 56 1011.2
20260503010052 75 167 0.0 2.6 0.00 0.00 0.00 56 1011.3
20260503005554 75 294 0.9 2.6 0.00 0.00 0.00 55 1011.3
20260503005055 75 0 0.9 2.6 0.00 0.00 0.00 56 1011.4
20260503004554 75 276 0.9 2.6 0.00 0.00 0.00 56 1011.3
20260503004054 75 0 0.0 3.5 0.00 0.00 0.00 56 1011.4
20260503003553 75 89 0.0 3.5 0.00 0.00 0.00 55 1011.4
20260503003054 75 224 0.9 3.5 0.00 0.00 0.00 56 1011.5
20260503002553 74 91 0.9 4.3 0.00 0.00 0.00 57 1011.4
20260503002053 74 88 0.9 4.3 0.00 0.00 0.00 55 1011.4
20260503001555 74 298 0.9 4.3 0.00 0.00 0.00 55 1011.4
20260503001054 74 322 0.9 4.3 0.00 0.00 0.00 56 1011.6
20260503000554 74 303 1.7 4.3 0.00 0.00 0.00 55 1011.7
20260503000055 74 330 0.0 2.6 0.00 0.00 0.00 56 1011.5
20260502235553 73 257 0.9 2.6 0.00 0.00 0.00 56 1011.5
20260502235053 73 306 1.7 3.5 0.00 0.00 0.00 56 1011.6
20260502234609 73 314 0.0 3.5 0.00 0.00 0.00 56 1011.8
20260502234053 73 198 0.9 4.3 0.00 0.00 0.00 57 1011.8
20260502233552 73 303 0.0 4.3 0.00 0.00 0.00 57 1011.9
20260502233102 72 309 0.9 3.5 0.00 0.00 0.00 58 1011.9
20260502232552 72 205 0.0 3.5 0.00 0.00 0.00 58 1012.1
20260502232052 72 79 0.9 3.5 0.00 0.00 0.00 58 1012.1
20260502231606 72 310 1.7 4.3 0.00 0.00 0.00 58 1012.1
20260502231053 71 295 0.9 4.3 0.00 0.00 0.00 58 1012.2
20260502230553 71 320 1.7 5.2 0.00 0.00 0.00 59 1012.2
20260502230054 71 306 1.7 5.2 0.00 0.00 0.00 58 1012.3
20260502225552 72 326 0.0 3.5 0.00 0.00 0.00 58 1012.4
20260502225052 71 165 1.7 3.5 0.00 0.00 0.00 58 1012.4
20260502224557 71 303 0.9 3.5 0.00 0.00 0.00 59 1012.6
20260502224053 71 212 0.9 3.5 0.00 0.00 0.00 59 1012.6
20260502223553 71 273 0.9 4.3 0.00 0.00 0.00 59 1012.8
20260502223058 70 178 0.9 4.3 0.00 0.00 0.00 60 1012.8
20260502222553 70 21 0.9 5.2 0.00 0.00 0.00 61 1012.8
20260502222056 69 54 1.7 5.2 0.00 0.00 0.00 60 1012.9
20260502221553 70 281 0.9 4.3 0.00 0.00 0.00 60 1013.0
20260502221054 69 336 0.9 3.5 0.00 0.00 0.00 62 1013.0
20260502220552 69 275 0.9 4.3 0.00 0.00 0.00 61 1013.1
20260502215553 69 153 1.7 3.5 0.00 0.00 0.00 60 1013.2
20260502215054 70 314 0.9 3.5 0.00 0.00 0.00 60 1013.3
20260502214555 70 321 0.9 2.6 0.00 0.00 0.00 59 1013.4
20260502214052 70 95 0.9 5.2 0.00 0.00 0.00 62 1013.4
20260502213554 69 248 1.7 5.2 0.00 0.00 0.00 61 1013.5
20260502213054 68 185 0.9 3.5 0.00 0.00 0.00 64 1013.5
20260502212553 68 119 1.7 4.3 0.00 0.00 0.00 63 1013.7
20260502212053 68 138 0.9 4.3 0.00 0.00 0.00 63 1013.8
20260502211554 67 305 1.7 4.3 0.00 0.00 0.00 65 1013.8
20260502211107 66 120 0.0 4.3 0.00 0.00 0.00 65 1013.8
20260502210553 66 68 1.7 4.3 0.00 0.00 0.00 64 1013.9
20260502210106 67 98 1.7 4.3 0.00 0.00 0.00 63 1014.0
20260502205553 67 279 0.9 3.5 0.00 0.00 0.00 65 1014.2
20260502205057 66 322 0.9 2.6 0.00 0.00 0.00 66 1014.3
20260502204556 65 219 0.9 3.5 0.00 0.00 0.00 66 1014.5
20260502204053 65 238 0.9 3.5 0.00 0.00 0.00 66 1014.7